K4AXV-13 Weather Reports


time (UTC)temp
C
wind
direction
speed
KPH
gust
KPH
rain 1hr
cm
rain 24hr
cm
rain mn
cm
humidity
%
barometer
mb
20260903164405 31 96 6.4 4.8 0.00 0.00 0.00
20260903163902 31 131 6.4 11.3 0.00 0.00 0.00
20260903162357 31 110 8.0 6.4 0.00 0.00 0.00
20260903161855 31 136 6.4 11.3 0.00 0.00 0.00
20260903161357 31 121 6.4 9.7 0.00 0.00 0.00
20260903160852 31 160 1.6 4.8 0.00 0.00 0.00
20260903155850 31 134 6.4 8.0 0.00 0.00 0.00
20260903155351 31 152 6.4 6.4 0.00 0.00 0.00
20260903154848 31 152 1.6 3.2 0.00 0.00 0.00
20260903154349 31 153 9.7 4.8 0.00 0.00 0.00
20260903153845 31 139 6.4 9.7 0.00 0.00 0.00
20260903153346 31 100 3.2 4.8 0.00 0.00 0.00
20260903152844 30 131 3.2 0.0 0.00 0.00 0.00
20260903152345 30 104 4.8 4.8 0.00 0.00 0.00
20260903151843 31 129 4.8 8.0 0.00 0.00 0.00
20260903151344 31 138 6.4 8.0 0.00 0.00 0.00
20260903150842 30 134 12.9 9.7 0.00 0.00 0.00
20260903150346 30 143 4.8 4.8 0.00 0.00 0.00
20260903145841 30 73 1.6 1.6 0.00 0.00 0.00
20260903145557 28 52 0.0 0.0 0.00 0.00 0.00
20260903145555 28 52 0.0 0.0 0.00 0.00 0.00
20260903145441 28 52 0.0 0.0 0.00 0.00 0.00
20260903145439 28 52 0.0 0.0 0.00 0.00 0.00
20260903144837 30 89 6.4 3.2 0.00 0.00 0.00
20260903144337 30 82 0.0 1.6 0.00 0.00 0.00
20260903143832 30 156 3.2 4.8 0.00 0.00 0.00
20260903143333 30 63 3.2 4.8 0.00 0.00 0.00
20260903142831 29 115 3.2 1.6 0.00 0.00 0.00
20260903141829 29 89 1.6 3.2 0.00 0.00 0.00
20260903140826 28 105 1.6 1.6 0.00 0.00 0.00
20260903140326 28 56 0.0 0.0 0.00 0.00 0.00
20260903135821 28 60 1.6 1.6 0.00 0.00 0.00
20260903134820 28 52 0.0 0.0 0.00 0.00 0.00
20260903134409 28 52 0.0 0.0 0.00 0.00 0.00
20260903134321 28 52 0.0 0.0 0.00 0.00 0.00
20260903130626 27 70 3.2 3.2 0.00 0.00 0.00
20260903130552 27 70 3.2 3.2 0.00 0.00 0.00
20260903130514 27 70 3.2 3.2 0.00 0.00 0.00
20260903130315 27 70 3.2 3.2 0.00 0.00 0.00
20260903125933 27 69 1.6 3.2 0.00 0.00 0.00
20260903125809 27 69 1.6 3.2 0.00 0.00 0.00
20260903124712 25 46 0.0 0.0 0.00 0.00 0.00
20260903124617 25 46 0.0 0.0 0.00 0.00 0.00
20260903124545 25 46 0.0 0.0 0.00 0.00 0.00
20260903124309 26 51 0.0 0.0 0.00 0.00 0.00
20260903124011 26 46 0.0 0.0 0.00 0.00 0.00
20260903123945 26 46 0.0 0.0 0.00 0.00 0.00
20260903123932 26 46 0.0 0.0 0.00 0.00 0.00
20260903123851 26 46 0.0 0.0 0.00 0.00 0.00
20260903123808 26 46 0.0 0.0 0.00 0.00 0.00
20260903123308 26 46 0.0 0.0 0.00 0.00 0.00
20260903123044 26 46 0.0 0.0 0.00 0.00 0.00
20260903123012 26 46 0.0 0.0 0.00 0.00 0.00
20260903122803 26 46 0.0 0.0 0.00 0.00 0.00
20260903121303 25 46 0.0 0.0 0.00 0.00 0.00
20260903121011 25 46 0.0 0.0 0.00 0.00 0.00
20260903120759 25 46 0.0 0.0 0.00 0.00 0.00
20260903120527 24 46 0.0 0.0 0.00 0.00 0.00
20260903120247 24 46 0.0 0.0 0.00 0.00 0.00
20260903114748 25 46 0.0 0.0 0.00 0.00 0.00
20260903113825 24 46 0.0 0.0 0.00 0.00 0.00
20260903113743 24 46 0.0 0.0 0.00 0.00 0.00
20260903113319 24 46 0.0 0.0 0.00 0.00 0.00
20260903113244 24 46 0.0 0.0 0.00 0.00 0.00
20260903113148 24 46 0.0 0.0 0.00 0.00 0.00
20260903113111 24 46 0.0 0.0 0.00 0.00 0.00
20260903112741 24 46 0.0 0.0 0.00 0.00 0.00
20260903112258 23 46 0.0 0.0 0.00 0.00 0.00
20260903111832 23 46 0.0 0.0 0.00 0.00 0.00
20260903111741 23 46 0.0 0.0 0.00 0.00 0.00
20260903111317 24 46 0.0 0.0 0.00 0.00 0.00
20260903111242 24 46 0.0 0.0 0.00 0.00 0.00
20260903093212 24 46 0.0 0.0 0.00 0.00 0.00
20260903092250 24 46 0.0 0.0 0.00 0.00 0.00
20260903092212 24 46 0.0 0.0 0.00 0.00 0.00
20260903084154 24 46 0.0 0.0 0.00 0.00 0.00
20260903083732 24 46 0.0 0.0 0.00 0.00 0.00
20260903083647 24 46 0.0 0.0 0.00 0.00 0.00
20260903080643 24 46 0.0 0.0 0.00 0.00 0.00
20260903080136 24 46 0.0 0.0 0.00 0.00 0.00
20260903075259 24 46 0.0 0.0 0.00 0.00 0.00
20260903075228 24 46 0.0 0.0 0.00 0.00 0.00
20260903075219 24 46 0.0 0.0 0.00 0.00 0.00
20260903075136 24 46 0.0 0.0 0.00 0.00 0.00
20260903075112 24 46 0.0 0.0 0.00 0.00 0.00
20260903075040 24 46 0.0 0.0 0.00 0.00 0.00
20260903074631 24 46 0.0 0.0 0.00 0.00 0.00
20260903071618 24 46 0.0 0.0 0.00 0.00 0.00
20260903070806 24 46 0.0 0.0 0.00 0.00 0.00
20260903070613 24 46 0.0 0.0 0.00 0.00 0.00
20260903065119 24 46 0.0 0.0 0.00 0.00 0.00
20260903064651 25 46 0.0 0.0 0.00 0.00 0.00
20260903064608 25 46 0.0 0.0 0.00 0.00 0.00
20260903064140 24 46 0.0 0.0 0.00 0.00 0.00
20260903064108 24 46 0.0 0.0 0.00 0.00 0.00
20260903052821 24 46 0.0 0.0 0.00 0.00 0.00
20260903052748 24 46 0.0 0.0 0.00 0.00 0.00
20260903052746 24 46 0.0 0.0 0.00 0.00 0.00
20260903051115 24 46 0.0 0.0 0.00 0.00 0.00
20260903051043 24 46 0.0 0.0 0.00 0.00 0.00
20260903050539 24 46 0.0 0.0 0.00 0.00 0.00
20260903045537 25 46 0.0 0.0 0.00 0.00 0.00
20260903045037 25 46 0.0 0.0 0.00 0.00 0.00
20260903044614 25 46 0.0 0.0 0.00 0.00 0.00
20260903044611 25 46 0.0 0.0 0.00 0.00 0.00
20260903044536 25 46 0.0 0.0 0.00 0.00 0.00
20260903044533 25 46 0.0 0.0 0.00 0.00 0.00
20260903044033 25 46 0.0 0.0 0.00 0.00 0.00
20260903043530 25 46 0.0 0.0 0.00 0.00 0.00
20260903042914 25 46 0.0 0.0 0.00 0.00 0.00
20260903042600 25 46 0.0 0.0 0.00 0.00 0.00
20260903042528 25 46 0.0 0.0 0.00 0.00 0.00
20260903042028 25 46 0.0 0.0 0.00 0.00 0.00
20260903041524 25 46 0.0 0.0 0.00 0.00 0.00
20260903041025 25 46 0.0 0.0 0.00 0.00 0.00
20260903040735 25 65 1.6 1.6 0.00 0.00 0.00
20260903040517 25 65 1.6 1.6 0.00 0.00 0.00
20260903040018 25 75 3.2 1.6 0.00 0.00 0.00
20260903035007 25 83 0.0 0.0 0.00 0.00 0.00
20260903034503 25 83 0.0 0.0 0.00 0.00 0.00
20260903034003 25 83 0.0 0.0 0.00 0.00 0.00
20260903032959 25 83 0.0 0.0 0.00 0.00 0.00
20260903032455 25 83 0.0 0.0 0.00 0.00 0.00
20260903031955 25 83 0.0 0.0 0.00 0.00 0.00
20260903031525 25 83 0.0 0.0 0.00 0.00 0.00
20260903031452 25 83 0.0 0.0 0.00 0.00 0.00
20260903030953 25 83 0.0 0.0 0.00 0.00 0.00
20260903030449 25 83 0.0 0.0 0.00 0.00 0.00
20260903030038 25 83 0.0 0.0 0.00 0.00 0.00
20260903025950 25 83 0.0 0.0 0.00 0.00 0.00
20260903025702 25 83 0.0 0.0 0.00 0.00 0.00
20260903025447 25 83 0.0 0.0 0.00 0.00 0.00
20260903024948 25 83 0.0 0.0 0.00 0.00 0.00
20260903024835 25 83 0.0 0.0 0.00 0.00 0.00
20260903024445 25 83 0.0 0.0 0.00 0.00 0.00
20260903023945 25 83 0.0 0.0 0.00 0.00 0.00
20260903023441 26 83 0.0 0.0 0.00 0.00 0.00
20260903022942 25 83 0.0 0.0 0.00 0.00 0.00
20260903022437 26 83 0.0 0.0 0.00 0.00 0.00
20260903021938 26 83 0.0 0.0 0.00 0.00 0.00
20260903021433 26 83 0.0 0.0 0.00 0.00 0.00
20260903020933 26 83 0.0 0.0 0.00 0.00 0.00
20260903020431 26 83 0.0 0.0 0.00 0.00 0.00
20260903015929 26 83 0.0 0.0 0.00 0.00 0.00
20260903015427 26 83 0.0 0.0 0.00 0.00 0.00
20260903014926 26 83 0.0 0.0 0.00 0.00 0.00
20260903014422 26 83 0.0 0.0 0.00 0.00 0.00
20260903013922 26 83 0.0 0.0 0.00 0.00 0.00
20260903013418 26 83 0.0 0.0 0.00 0.00 0.00
20260903012413 26 83 0.0 0.0 0.00 0.00 0.00
20260903011914 26 83 0.0 0.0 0.00 0.00 0.00
20260903011411 26 83 0.0 0.0 0.00 0.00 0.00
20260903011108 27 83 0.0 0.0 0.00 0.00 0.00
20260903010909 27 83 0.0 0.0 0.00 0.00 0.00
20260903010441 27 83 0.0 0.0 0.00 0.00 0.00
20260903010405 27 83 0.0 0.0 0.00 0.00 0.00
20260903010052 26 83 0.0 0.0 0.00 0.00 0.00
20260903005905 26 83 0.0 0.0 0.00 0.00 0.00
20260903005402 27 83 0.0 0.0 0.00 0.00 0.00
20260903004902 27 83 0.0 0.0 0.00 0.00 0.00
20260903004358 26 83 0.0 0.0 0.00 0.00 0.00
20260903003857 27 83 0.0 0.0 0.00 0.00 0.00
20260903003355 27 83 0.0 0.0 0.00 0.00 0.00
20260903002855 27 83 0.0 0.0 0.00 0.00 0.00
20260903002352 27 83 0.0 0.0 0.00 0.00 0.00
20260903001852 27 83 0.0 0.0 0.00 0.00 0.00
20260903001350 27 83 0.0 0.0 0.00 0.00 0.00
20260903000850 28 83 0.0 0.0 0.00 0.00 0.00
20260903000347 28 83 0.0 0.0 0.00 0.00 0.00
20260902235853 28 83 0.0 0.0 0.00 0.00 0.00
20260902235345 28 83 0.0 0.0 0.00 0.00 0.00
20260902234846 28 83 0.0 0.0 0.00 0.00 0.00
20260902234341 29 83 0.0 0.0 0.00 0.00 0.00
20260902233841 29 63 0.0 0.0 0.00 0.00 0.00
20260902233335 29 51 0.0 0.0 0.00 0.00 0.00
20260902232836 29 79 3.2 3.2 0.00 0.00 0.00
20260902232332 29 63 1.6 1.6 0.00 0.00 0.00
20260902231833 29 38 0.0 0.0 0.00 0.00 0.00
20260902231331 29 62 0.0 1.6 0.00 0.00 0.00
20260902230832 30 53 0.0 0.0 0.00 0.00 0.00
20260902230328 30 58 0.0 0.0 0.00 0.00 0.00
20260902225829 30 58 0.0 0.0 0.00 0.00 0.00
20260902225326 30 63 0.0 0.0 0.00 0.00 0.00
20260902224826 30 72 1.6 1.6 0.00 0.00 0.00
20260902224324 30 73 3.2 1.6 0.00 0.00 0.00
20260902223825 30 87 1.6 4.8 0.00 0.00 0.00
20260902223322 30 149 4.8 3.2 0.00 0.00 0.00
20260902222823 30 127 0.0 4.8 0.00 0.00 0.00
20260902222319 30 135 3.2 6.4 0.00 0.00 0.00
20260902221820 31 115 3.2 1.6 0.00 0.00 0.00
20260902221318 31 98 1.6 1.6 0.00 0.00 0.00
20260902220819 31 314 3.2 3.2 0.00 0.00 0.00
20260902220315 31 121 0.0 0.0 0.00 0.00 0.00
20260902215816 31 117 1.6 0.0 0.00 0.00 0.00
20260902215313 31 129 3.2 6.4 0.00 0.00 0.00
20260902214813 31 122 1.6 3.2 0.00 0.00 0.00
20260902213812 31 128 6.4 3.2 0.00 0.00 0.00
20260902213308 31 143 6.4 9.7 0.00 0.00 0.00
20260902212808 31 125 9.7 9.7 0.00 0.00 0.00
20260902212306 32 129 6.4 9.7 0.00 0.00 0.00
20260902211803 31 111 9.7 11.3 0.00 0.00 0.00
20260902211300 31 132 8.0 3.2 0.00 0.00 0.00
20260902210257 32 134 6.4 3.2 0.00 0.00 0.00
20260902205757 32 153 6.4 11.3 0.00 0.00 0.00
20260902205253 32 125 8.0 3.2 0.00 0.00 0.00
20260902204754 32 108 8.0 4.8 0.00 0.00 0.00
20260902204251 32 120 6.4 9.7 0.00 0.00 0.00
20260902203249 32 136 4.8 6.4 0.00 0.00 0.00
20260902202750 32 135 6.4 9.7 0.00 0.00 0.00
20260902202246 32 131 9.7 6.4 0.00 0.00 0.00
20260902201747 32 145 6.4 11.3 0.00 0.00 0.00
20260902201243 32 170 6.4 3.2 0.00 0.00 0.00
20260902200743 32 122 8.0 4.8 0.00 0.00 0.00
20260902200239 32 131 4.8 8.0 0.00 0.00 0.00
20260902195740 32 68 8.0 14.5 0.00 0.00 0.00
20260902195237 32 153 3.2 3.2 0.00 0.00 0.00
20260902194235 32 114 9.7 14.5 0.00 0.00 0.00
20260902193735 32 152 6.4 9.7 0.00 0.00 0.00
20260902193231 33 150 6.4 8.0 0.00 0.00 0.00
20260902192731 32 139 9.7 8.0 0.00 0.00 0.00
20260902192229 32 120 8.0 8.0 0.00 0.00 0.00
20260902191730 33 136 9.7 8.0 0.00 0.00 0.00
20260902191228 33 117 8.0 11.3 0.00 0.00 0.00
20260902190729 33 149 9.7 9.7 0.00 0.00 0.00
20260902190227 33 134 1.6 3.2 0.00 0.00 0.00
20260902184727 33 215 1.6 0.0 0.00 0.00 0.00
20260902184220 33 139 4.8 6.4 0.00 0.00 0.00
20260902183720 33 153 4.8 4.8 0.00 0.00 0.00
20260902183217 33 110 3.2 3.2 0.00 0.00 0.00
20260902182216 33 56 0.0 0.0 0.00 0.00 0.00
20260902181215 33 104 3.2 3.2 0.00 0.00 0.00
20260902180716 33 83 4.8 3.2 0.00 0.00 0.00
20260902180214 33 152 0.0 0.0 0.00 0.00 0.00
20260902175715 33 100 0.0 0.0 0.00 0.00 0.00
20260902174714 33 86 4.8 4.8 0.00 0.00 0.00
20260902174212 32 89 6.4 3.2 0.00 0.00 0.00
20260902173713 32 166 8.0 6.4 0.00 0.00 0.00
20260902172712 33 149 8.0 9.7 0.00 0.00 0.00
20260902172210 33 93 0.0 1.6 0.00 0.00 0.00
20260902171209 33 24 0.0 0.0 0.00 0.00 0.00
20260902170708 33 346 0.0 0.0 0.00 0.00 0.00
20260902170206 33 97 3.2 8.0 0.00 0.00 0.00
20260902165205 33 82 0.0 0.0 0.00 0.00 0.00
20260902164706 32 82 0.0 0.0 0.00 0.00 0.00